When you browse on this site, cookies collect data to enhance your experience and personalize the content and advertising you see.
Visit our Privacy Policy to learn more. By continuing to use the site, you agree to this use of cookies and data.
  • In Slovakia
  • List of Countries
  • For 7 days
  • Water Temperature
  • Weather Map
  • Weather Widgets
  • user-avatar
    Login

    Hourly Weather Viedma

    Today, 17 September, Tuesday

    Time Temperature Precipitation Wind Pressure Humidity
    00:00 +10°C° 0 mm 4 mps 757 mmHg 55%
    01:00 +8°C° 0 mm 4 mps 756 mmHg 60%
    02:00 +8°C° 0 mm 4 mps 756 mmHg 63%
    03:00 +8°C° 0 mm 4 mps 755 mmHg 66%
    04:00 +7°C° 0 mm 4 mps 754 mmHg 70%
    05:00 +7°C° 0 mm 4 mps 754 mmHg 73%
    06:00 +8°C° 0 mm 5 mps 753 mmHg 65%
    07:00 +10°C° 0 mm 6 mps 753 mmHg 57%
    08:00 +11°C° 0 mm 7 mps 753 mmHg 49%
    09:00 +13°C° 0 mm 9 mps 753 mmHg 45%
    10:00 +16°C° 0 mm 11 mps 752 mmHg 40%
    11:00 +17°C° 0 mm 12 mps 752 mmHg 36%
    12:00 +17°C° 0 mm 12 mps 751 mmHg 35%
    13:00 +17°C° 0 mm 12 mps 751 mmHg 35%
    14:00 +17°C° 0 mm 11 mps 751 mmHg 34%
    15:00 +16°C° 0 mm 11 mps 751 mmHg 37%
    16:00 +14°C° 0 mm 10 mps 751 mmHg 40%
    17:00 +13°C° 0 mm 9 mps 751 mmHg 43%
    18:00 +12°C° 0 mm 9 mps 752 mmHg 51%
    19:00 +10°C° 0 mm 8 mps 753 mmHg 60%
    20:00 +7°C° 0 mm 8 mps 754 mmHg 68%
    21:00 +7°C° 0 mm 6 mps 754 mmHg 73%
    22:00 +7°C° 0 mm 5 mps 755 mmHg 78%
    23:00 +7°C° 0 mm 3 mps 755 mmHg 84%

    Tomorrow, 18 September, Wednesday

    Time Temperature Precipitation Wind Pressure Humidity
    00:00 +5°C° 0 mm 3 mps 755 mmHg 84%
    01:00 +5°C° 0 mm 3 mps 754 mmHg 85%
    02:00 +5°C° 0 mm 3 mps 754 mmHg 86%
    03:00 +4°C° 0 mm 3 mps 754 mmHg 85%
    04:00 +4°C° 0 mm 3 mps 753 mmHg 84%
    05:00 +5°C° 0 mm 2 mps 753 mmHg 84%
    06:00 +5°C° 0 mm 4 mps 752 mmHg 75%
    07:00 +7°C° 0 mm 5 mps 752 mmHg 66%
    08:00 +8°C° 0 mm 6 mps 751 mmHg 57%
    09:00 +11°C° 0 mm 8 mps 750 mmHg 50%
    10:00 +13°C° 0 mm 9 mps 749 mmHg 42%
    11:00 +17°C° 0 mm 11 mps 748 mmHg 34%
    12:00 +18°C° 0 mm 11 mps 746 mmHg 31%
    13:00 +19°C° 0 mm 11 mps 745 mmHg 28%
    14:00 +21°C° 0 mm 11 mps 743 mmHg 24%
    15:00 +19°C° 0 mm 11 mps 742 mmHg 26%
    16:00 +18°C° 0 mm 10 mps 742 mmHg 28%
    17:00 +18°C° 0 mm 9 mps 741 mmHg 29%
    18:00 +15°C° 0.1 mm 7 mps 742 mmHg 39%
    19:00 +13°C° 0.1 mm 6 mps 742 mmHg 49%
    20:00 +9°C° 0.1 mm 5 mps 743 mmHg 59%
    21:00 +9°C° 0 mm 6 mps 744 mmHg 52%
    22:00 +9°C° 0 mm 8 mps 744 mmHg 45%
    23:00 +7°C° 0 mm 10 mps 745 mmHg 39%

    Day after tomorrow, 19 September, Thursday

    Time Temperature Precipitation Wind Pressure Humidity
    00:00 +7°C° 0 mm 10 mps 745 mmHg 39%
    01:00 +6°C° 0 mm 10 mps 746 mmHg 39%
    02:00 +5°C° 0 mm 10 mps 746 mmHg 39%
    03:00 +5°C° 0 mm 9 mps 747 mmHg 41%
    04:00 +5°C° 0 mm 9 mps 748 mmHg 42%
    05:00 +4°C° 0 mm 8 mps 749 mmHg 44%
    06:00 +5°C° 0 mm 10 mps 750 mmHg 42%
    07:00 +6°C° 0 mm 11 mps 751 mmHg 40%
    08:00 +7°C° 0 mm 12 mps 751 mmHg 37%
    09:00 +7°C° 0 mm 12 mps 752 mmHg 35%
    10:00 +8°C° 0 mm 12 mps 753 mmHg 33%
    11:00 +9°C° 0 mm 11 mps 754 mmHg 30%
    12:00 +9°C° 0 mm 11 mps 754 mmHg 28%
    13:00 +11°C° 0 mm 11 mps 754 mmHg 26%
    14:00 +11°C° 0 mm 11 mps 754 mmHg 24%
    15:00 +11°C° 0 mm 9 mps 754 mmHg 24%
    16:00 +11°C° 0 mm 8 mps 754 mmHg 24%
    17:00 +10°C° 0 mm 7 mps 754 mmHg 24%
    18:00 +9°C° 0 mm 6 mps 755 mmHg 25%
    19:00 +8°C° 0 mm 5 mps 755 mmHg 27%
    20:00 +6°C° 0 mm 4 mps 756 mmHg 29%
    21:00 +6°C° 0 mm 4 mps 756 mmHg 31%
    22:00 +6°C° 0 mm 4 mps 756 mmHg 32%
    23:00 +6°C° 0 mm 5 mps 756 mmHg 33%

    20 September, Friday

    Time Temperature Precipitation Wind Pressure Humidity
    00:00 +6°C° 0 mm 5 mps 756 mmHg 40%
    01:00 +6°C° 0 mm 5 mps 756 mmHg 46%
    02:00 +6°C° 0 mm 5 mps 756 mmHg 53%
    03:00 +6°C° 0 mm 4 mps 756 mmHg 56%
    04:00 +5°C° 0 mm 4 mps 756 mmHg 59%
    05:00 +5°C° 0 mm 4 mps 756 mmHg 62%
    06:00 +6°C° 0 mm 5 mps 757 mmHg 56%
    07:00 +8°C° 0 mm 5 mps 757 mmHg 49%
    08:00 +9°C° 0 mm 6 mps 757 mmHg 42%
    09:00 +11°C° 0 mm 6 mps 757 mmHg 37%
    10:00 +13°C° 0 mm 6 mps 757 mmHg 32%
    11:00 +14°C° 0 mm 6 mps 757 mmHg 27%
    12:00 +15°C° 0 mm 6 mps 757 mmHg 25%
    13:00 +16°C° 0 mm 6 mps 756 mmHg 23%
    14:00 +16°C° 0 mm 6 mps 756 mmHg 21%
    15:00 +16°C° 0 mm 5 mps 755 mmHg 22%
    16:00 +16°C° 0 mm 5 mps 755 mmHg 23%
    17:00 +17°C° 0 mm 4 mps 755 mmHg 24%
    18:00 +14°C° 0 mm 3 mps 754 mmHg 27%
    19:00 +12°C° 0 mm 3 mps 754 mmHg 30%
    20:00 +9°C° 0 mm 3 mps 754 mmHg 33%
    21:00 +9°C° 0 mm 2 mps 754 mmHg 37%
    22:00 +8°C° 0 mm 2 mps 755 mmHg 40%
    23:00 +7°C° 0 mm 2 mps 755 mmHg 43%

    21 September, Saturday

    Time Temperature Precipitation Wind Pressure Humidity
    00:00 +8°C° 0 mm 3 mps 755 mmHg 45%
    01:00 +7°C° 0 mm 4 mps 755 mmHg 46%
    02:00 +7°C° 0 mm 5 mps 755 mmHg 48%
    03:00 +7°C° 0 mm 5 mps 755 mmHg 47%
    04:00 +7°C° 0 mm 6 mps 755 mmHg 47%
    05:00 +7°C° 0 mm 6 mps 756 mmHg 47%
    06:00 +8°C° 0 mm 7 mps 756 mmHg 47%
    07:00 +9°C° 0 mm 7 mps 756 mmHg 46%
    08:00 +10°C° 0 mm 8 mps 757 mmHg 46%
    09:00 +11°C° 0 mm 8 mps 757 mmHg 43%
    10:00 +12°C° 0 mm 9 mps 758 mmHg 41%
    11:00 +13°C° 0 mm 9 mps 758 mmHg 38%
    12:00 +12°C° 0 mm 9 mps 758 mmHg 36%
    13:00 +12°C° 0 mm 9 mps 758 mmHg 33%
    14:00 +12°C° 0 mm 9 mps 758 mmHg 30%
    15:00 +12°C° 0 mm 8 mps 759 mmHg 30%
    16:00 +11°C° 0 mm 7 mps 760 mmHg 30%
    17:00 +10°C° 0 mm 6 mps 760 mmHg 30%
    18:00 +8°C° 0 mm 5 mps 761 mmHg 39%
    19:00 +6°C° 0 mm 4 mps 762 mmHg 48%
    20:00 +5°C° 0 mm 3 mps 763 mmHg 57%
    21:00 +4°C° 0 mm 3 mps 763 mmHg 59%
    22:00 +5°C° 0 mm 2 mps 764 mmHg 62%
    23:00 +4°C° 0 mm 2 mps 764 mmHg 64%

    22 September, Sunday

    Time Temperature Precipitation Wind Pressure Humidity
    00:00 +4°C° 0 mm 1 mps 765 mmHg 67%
    01:00 +4°C° 0 mm 1 mps 765 mmHg 70%
    02:00 +2°C° 0 mm 0 mps 766 mmHg 73%
    03:00 +3°C° 0 mm 1 mps 766 mmHg 72%
    04:00 +3°C° 0 mm 1 mps 766 mmHg 71%
    05:00 +3°C° 0 mm 1 mps 767 mmHg 71%
    06:00 +4°C° 0 mm 2 mps 767 mmHg 63%
    07:00 +6°C° 0 mm 2 mps 768 mmHg 55%
    08:00 +8°C° 0 mm 3 mps 768 mmHg 48%
    09:00 +9°C° 0 mm 3 mps 768 mmHg 41%
    10:00 +11°C° 0 mm 3 mps 769 mmHg 34%
    11:00 +13°C° 0 mm 3 mps 769 mmHg 27%
    12:00 +14°C° 0 mm 3 mps 769 mmHg 25%
    13:00 +16°C° 0 mm 3 mps 768 mmHg 23%
    14:00 +17°C° 0 mm 3 mps 768 mmHg 20%
    15:00 +15°C° 0 mm 4 mps 768 mmHg 22%
    16:00 +15°C° 0 mm 4 mps 767 mmHg 23%
    17:00 +14°C° 0 mm 5 mps 767 mmHg 25%
    18:00 +12°C° 0 mm 5 mps 767 mmHg 31%
    19:00 +9°C° 0 mm 6 mps 767 mmHg 36%
    20:00 +7°C° 0 mm 6 mps 767 mmHg 42%
    21:00 +6°C° 0 mm 7 mps 767 mmHg 43%
    22:00 +6°C° 0 mm 7 mps 767 mmHg 45%
    23:00 +5°C° 0 mm 7 mps 767 mmHg 46%
    Show more